Torna al catalogo

STARLINK-5903

AttivoComunicazioniVLEO
NORAD 55996·PAYLOAD·🇺🇸 United States

Lanciato Mar 24, 2023 da Cape Canaveral Space Force Station

Loading…

Prossimi Passaggi (prossime 24 ore)

TLE

AggiornatoSource: CelesTrak SupGP

Epoca: Sep 15, 2026, 02:19 UTC

1 55996C 23042L   26258.09701389 -.00037280  00000+0 -13501-2 0  2586
2 55996  43.0026  69.6936 0001424 270.2147 308.2109 15.27600401    14

Traccia STARLINK-5903 in tempo reale con AllMySat

Download on the App Store